Preview of NWS' New Version of Forecast
This preview is not operational and should not be used for support decisions.

Regional Weather Roundup (RWR)

Issued by National Weather Service (NWS)

                            
000
ASUS43 KMKX 211500
RWRWI 

WISCONSIN REGIONAL WEATHER ROUNDUP
NATIONAL WEATHER SERVICE MILWAUKEE/SULLIVAN WI
1000 AM CDT SAT SEP 21 2019

NOTE: "FAIR" INDICATES FEW OR NO CLOUDS BELOW 12,000 FEET WITH NO
SIGNIFICANT WEATHER AND/OR OBSTRUCTIONS TO VISIBILITY.

WIZ001-002-006>008-014>016-023>028-211600-
NORTHWEST WISCONSIN
  
CITY           SKY/WX    TMP DP  RH WIND       PRES   REMARKS
SUPERIOR ARPT  RAIN      54  54 100 CALM      29.78F                  
ASHLAND        PTSUNNY   74  67  78 S14G26    29.82S                  
HAYWARD        CLOUDY    72  67  84 S12G22    29.84F                  
SIREN          CLOUDY    69  68  95 S9          N/A                   
CUMBERLAND     CLOUDY    68  66  94 S13       29.84F                  
RICE LAKE      DRIZZLE   70  55  60 S13       29.86S                  
CHETEK         DRIZZLE   70  69  98 S8G16     29.87R                  
LADYSMITH      CLOUDY    72  70  93 S9        29.90R                  
EAU CLAIRE     CLOUDY    75  67  76 S12       29.86F                  
MENOMONIE      CLOUDY    69  66  91 S9        29.87R                  
NEW RICHMOND   CLOUDY    73  67  83 S13G18    29.83F                  
OSCEOLA        CLOUDY    72  72  99 S15G23    29.84S                  
$$
 
WIZ003>005-009-010-017-018-211600-
NORTH CENTRAL WISCONSIN
  
CITY           SKY/WX    TMP DP  RH WIND       PRES   REMARKS
MANITOWISH WTR CLOUDY    71  71  99 S14G20    29.89F                  
ARBOR VITAE    CLOUDY    72  67  85 S13       29.91F                  
WOODRUFF       CLOUDY    72  67  85 S13       29.91F                  
RHINELANDER    CLOUDY    70  65  84 S10G16    29.95F                  
EAGLE RIVER    PTSUNNY   72  66  82 S12G18    29.93F                  
LAND O LAKES   NOT AVBL                                               
PHILLIPS       CLOUDY    70  69  96 S14G21    29.88F                  
TOMAHAWK       CLOUDY    69  66  90 S3        29.94F                  
MEDFORD        CLOUDY    68  67  94 S10G16    29.94R                  
MERRILL        CLOUDY    71  69  95 S7        29.95F                  
$$
 
WIZ029-030-035-036-043>047-211600-
CENTRAL WISCONSIN
  
CITY           SKY/WX    TMP DP  RH WIND       PRES   REMARKS
WAUSAU         LGT RAIN  70  68  93 S9        29.93F FOG              
MOSINEE        CLOUDY    70  64  83 S12       29.96F                  
MARSHFIELD     CLOUDY    71  68  90 S10       29.94S                  
STEVENS POINT  CLOUDY    69  69  98 S10       29.97F                  
WAUPACA        CLOUDY    73  71  91 S13       29.98S                  
WAUTOMA        CLOUDY    72  69  90 S9          N/A                   
WISC RAPIDS    CLOUDY    73  68  84 S12       29.96F                  
CAMP DOUGLAS   DRIZZLE   72  72 100 S6        29.96R                  
$$
 
WIZ011>013-019>022-031-037>040-048>050-211600-
NORTHEAST WISCONSIN
  
CITY           SKY/WX    TMP DP  RH WIND       PRES   REMARKS
ANTIGO         CLOUDY    66  66 100 S8        29.98S FOG              
SHAWANO        PTSUNNY   76  69  80 SW5       29.97S                  
OCONTO         FAIR      72  67  84 S6        29.97F                  
STURGEON BAY   FAIR      73  68  84 SE10      29.99F                  
GREEN BAY      FAIR      76  68  76 S12       29.98F                  
MANITOWOC      FAIR      71  67  87 S10       30.01S                  
APPLETON       PTSUNNY   75  68  78 S17       29.98F                  
CLINTONVILLE   CLOUDY    74  67  79 S8G16     29.97S                  
OSHKOSH        CLOUDY    73  68  84 SW10      29.99S                  
$$
 
WIZ032>034-041-042-053>061-211600-
SOUTHWEST WISCONSIN
  
CITY           SKY/WX    TMP DP  RH WIND       PRES   REMARKS
LA CROSSE      CLOUDY    75  68  78 S13       29.91R                  
SPARTA         CLOUDY    70  66  86 S10       29.94S                  
VIROQUA        CLOUDY    70  70 100 S12       29.96R                  
BOSCOBEL       CLOUDY    74  69  85 S8G22     29.97S                  
PRAIRIE DU CHI CLOUDY    72  68  88 S9        29.96S                  
PLATTEVILLE    CLOUDY    72  72 100 S15       30.01S                  
$$

WIZ056-057-062-063-064-067-068-211600-
SOUTH CENTRAL WISCONSIN
  
CITY           SKY/WX    TMP DP  RH WIND       PRES   REMARKS
REEDSBURG      CLOUDY    72  71  96 S12       29.97S                  
BARABOO/DELLS  CLOUDY    70  67  88 S12G18    29.98S                  
LONE ROCK      NOT AVBL                                               
MINERAL POINT  CLOUDY    72  72 100 S12G17    30.01S                  
MADISON        CLOUDY    73  68  84 S13G22    30.00S                  
MIDDLETON      CLOUDY    74  67  78 S13G20    30.01S                  
WATERTOWN      CLOUDY    73  73 100 S12G17    30.02F                  
MONROE         CLOUDY   N/A N/A N/A S21       30.03S                  
JANESVILLE     CLOUDY    73  73 100 S13G18    30.04S                  
$$
 
WIZ051-052-058>065-066-070>072-211600-
SOUTHEAST WISCONSIN
  
CITY           SKY/WX    TMP DP  RH WIND       PRES   REMARKS
MILWAUKEE      PTSUNNY   77  68  73 S15G24    30.04F                  
WAUKESHA       PTSUNNY   72  66  83 S9        30.05F                  
MILWAUKEE/TIMM CLOUDY    75  64  69 S13G22    30.05F                  
RACINE         FAIR      77  68  73 SW15G26   30.07F                  
KENOSHA        FAIR      78  70  76 SW15G25   30.06F HX  80           
FOND DU LAC    LGT RAIN  75  68  78 S15G26    30.00F                  
SHEBOYGAN      FAIR      77  69  76 S15       30.00F                  
WEST BEND      CLOUDY    73  70  88 S13G18    30.03F                  
JUNEAU         CLOUDY    73  69  88 S9G16     30.02F                  
$$

LSZ147-162-211600-
LAKE SUPERIOR
  
STATION/POSITION TIME  TEMP    WIND        PRES    WAVE
                       AIR SEA DIR/SP/G            HT/PER
                 (UTC) (F)     (DEG/KT/KT) (MB)    (FT/S)
W MID LAKE BUOY  1350   61 54  160/ 12/ 14 1010.0F   1/ 3
DEVILS ISLAND    1400   68     150/ 11/ 15 1009.1F
SAXON HARBOR     1430   75     170/  4/  7 1009.5F
$$
 
LMZ867-665-643>646-211600-
LAKE MICHIGAN
  
STATION/POSITION TIME  TEMP    WIND        PRES    WAVE
                       AIR SEA DIR/SP/G            HT/PER
                 (UTC) (F)     (DEG/KT/KT) (MB)    (FT/S)
CHAMBERS ISLAND  1440   74      90/  7/ 13   N/A
N MID LAKE BUOY  1440   66 63  150/ 12/ 14 1016.7F
NORTHPORT PIER   1440   66     120/ 11/ 14 1015.9F
KEWAUNEE LAKESHO 1430   63     170/  8/  9 1015.3F
SHEBOYGAN LAKESH 1400   65     180/ 16/ 17 1016.7F
PORT WASHINGTON  1440   70     180/  6/ 10 1017.9F
ATWATER BUOY     1430   64 60  160/ 10/ 14 1017.4F   1/ 3
MILWAUKEE LAKESH 1440   76     200/ 13/ 19   N/A
S MID LAKE BUOY  1440   71 69  180/ 16/ 17 1018.8F
KENOSHA   LAKESH 1400   66     180/  9/ 13 1017.9
$$

TC  - TEMPERATURE IN CELSIUS
VSB - VISIBILITY IN STATUTE MILES
WCI - WIND CHILL INDEX
HX  - HEAT INDEX